Location: Shepherdstown, WV
(39.4326°N, 77.8042°W)
Time: 19:06:44
(UTC-04:00)

X-37B - Pass Details

Date: 27 June 2021
Orbit: 383 x 392 km, 45.0° (Epoch: 01 July)

Event Time Altitude Azimuth Distance (km) Brightness Sun altitude
Rises 23:36:17 0° 293° (WNW) 2,256 5.2 -23.2°
Reaches altitude 10° 23:38:30 10° 304° (WNW) 1,402 4.2 -23.4°
Enters shadow 23:41:13 31° 3° (N) 699 2.4 -23.6°
